Tracking 29019 objects as of 13-Jun-2024
HD Live streaming from Space Station
objects crossing your sky now

USA 340

Track USA 340 now!


NORAD ID: 55138
Int'l Code: 2022-144E
Perigee: 35,975.6 km
Apogee: 36,015.8 km
Inclination: 3.8 °
Period: 1,446.4 minutes
Semi major axis: 42366 km
RCS: Unknown
Launch date: November 1, 2022
Source: United States (US)
Launch site: AIR FORCE EASTERN TEST RANGE (AFETR)
Your satellite tracking list
Your tracking list is empty




NASA's NSSDC Master Catalog

Two Line Element Set (TLE):
1 55138U 22144E   24152.91459991  .00000031  00000-0  00000-0 0  9990
2 55138   3.7517  65.9748 0004748  69.7415 106.1858  0.99555773  4295
Source of the keplerian elements: AFSPC